Hourly Weather Jobbágyi

Today, 22 September, Tuesday

Time Temperature Precipitation Wind Pressure Humidity
00:00 +16°C° 0 mm 1 mps 751 mmHg 56%
01:00 +15°C° 0 mm 1 mps 751 mmHg 57%
02:00 +15°C° 0 mm 1 mps 751 mmHg 59%
03:00 +15°C° 0 mm 1 mps 751 mmHg 61%
04:00 +14°C° 0 mm 1 mps 751 mmHg 62%
05:00 +15°C° 0 mm 1 mps 751 mmHg 61%
06:00 +16°C° 0 mm 1 mps 751 mmHg 59%
07:00 +18°C° 0 mm 1 mps 751 mmHg 54%
08:00 +20°C° 0 mm 1 mps 751 mmHg 49%
09:00 +21°C° 0 mm 2 mps 751 mmHg 44%
10:00 +25°C° 0 mm 2 mps 751 mmHg 40%
11:00 +26°C° 0 mm 3 mps 751 mmHg 37%
12:00 +27°C° 0 mm 3 mps 750 mmHg 35%
13:00 +28°C° 0 mm 3 mps 750 mmHg 32%
14:00 +28°C° 0 mm 3 mps 749 mmHg 33%
15:00 +27°C° 0 mm 3 mps 749 mmHg 34%
16:00 +27°C° 0 mm 3 mps 748 mmHg 35%
17:00 +25°C° 0 mm 3 mps 748 mmHg 39%
18:00 +22°C° 0 mm 3 mps 748 mmHg 44%
19:00 +20°C° 0 mm 2 mps 748 mmHg 49%
20:00 +19°C° 0 mm 2 mps 748 mmHg 51%
21:00 +19°C° 0 mm 2 mps 748 mmHg 52%
22:00 +18°C° 0 mm 2 mps 747 mmHg 54%
23:00 +18°C° 0 mm 2 mps 747 mmHg 55%

Tomorrow, 23 September, Wednesday

Time Temperature Precipitation Wind Pressure Humidity
00:00 +17°C° 0 mm 2 mps 747 mmHg 57%
01:00 +17°C° 0 mm 2 mps 747 mmHg 58%
02:00 +17°C° 0 mm 2 mps 747 mmHg 58%
03:00 +17°C° 0 mm 2 mps 747 mmHg 59%
04:00 +16°C° 0 mm 2 mps 746 mmHg 60%
05:00 +17°C° 0 mm 2 mps 746 mmHg 59%
06:00 +17°C° 0 mm 2 mps 746 mmHg 58%
07:00 +18°C° 0 mm 2 mps 746 mmHg 57%
08:00 +19°C° 0 mm 2 mps 746 mmHg 52%
09:00 +20°C° 0 mm 2 mps 746 mmHg 47%
10:00 +23°C° 0 mm 2 mps 746 mmHg 42%
11:00 +24°C° 0 mm 2 mps 746 mmHg 40%
12:00 +26°C° 0 mm 2 mps 746 mmHg 37%
13:00 +27°C° 0 mm 2 mps 745 mmHg 35%
14:00 +27°C° 0 mm 2 mps 745 mmHg 38%
15:00 +27°C° 0 mm 1 mps 744 mmHg 40%
16:00 +26°C° 0 mm 1 mps 744 mmHg 43%
17:00 +25°C° 0.4 mm 1 mps 744 mmHg 48%
18:00 +23°C° 0.4 mm 1 mps 744 mmHg 54%
19:00 +21°C° 0.4 mm 1 mps 744 mmHg 59%
20:00 +21°C° 1 mm 1 mps 744 mmHg 64%
21:00 +20°C° 1 mm 1 mps 744 mmHg 69%
22:00 +19°C° 1 mm 1 mps 744 mmHg 74%
23:00 +19°C° 0.4 mm 1 mps 744 mmHg 77%

Day after tomorrow, 24 September, Thursday

Time Temperature Precipitation Wind Pressure Humidity
00:00 +19°C° 0.4 mm 1 mps 744 mmHg 79%
01:00 +18°C° 0.4 mm 1 mps 744 mmHg 82%
02:00 +18°C° 0 mm 1 mps 744 mmHg 84%
03:00 +16°C° 0 mm 1 mps 744 mmHg 86%
04:00 +15°C° 0 mm 0 mps 744 mmHg 89%
05:00 +15°C° 0 mm 0 mps 745 mmHg 87%
06:00 +16°C° 0 mm 0 mps 745 mmHg 86%
07:00 +17°C° 0 mm 0 mps 745 mmHg 84%
08:00 +20°C° 0 mm 1 mps 745 mmHg 77%
09:00 +22°C° 0 mm 1 mps 745 mmHg 70%
10:00 +24°C° 0 mm 1 mps 746 mmHg 63%
11:00 +25°C° 0 mm 1 mps 746 mmHg 59%
12:00 +26°C° 0 mm 2 mps 745 mmHg 55%
13:00 +26°C° 0 mm 2 mps 745 mmHg 51%
14:00 +26°C° 0 mm 1 mps 745 mmHg 52%
15:00 +26°C° 0 mm 1 mps 745 mmHg 52%
16:00 +26°C° 0 mm 1 mps 744 mmHg 53%
17:00 +24°C° 0 mm 1 mps 745 mmHg 58%
18:00 +21°C° 0 mm 0 mps 745 mmHg 63%
19:00 +19°C° 0 mm 0 mps 745 mmHg 69%
20:00 +19°C° 0 mm 0 mps 745 mmHg 70%
21:00 +18°C° 0 mm 0 mps 745 mmHg 72%
22:00 +18°C° 0 mm 0 mps 744 mmHg 73%
23:00 +20°C° 0 mm 1 mps 744 mmHg 74%

25 September, Friday

Time Temperature Precipitation Wind Pressure Humidity
00:00 +19°C° 0 mm 1 mps 744 mmHg 75%
01:00 +19°C° 0 mm 1 mps 743 mmHg 76%
02:00 +19°C° 0 mm 1 mps 743 mmHg 78%
03:00 +19°C° 0 mm 1 mps 742 mmHg 79%
04:00 +18°C° 0 mm 1 mps 742 mmHg 80%
05:00 +19°C° 0 mm 1 mps 742 mmHg 79%
06:00 +18°C° 0 mm 2 mps 741 mmHg 77%
07:00 +19°C° 0 mm 2 mps 741 mmHg 75%
08:00 +20°C° 0 mm 2 mps 741 mmHg 68%
09:00 +22°C° 0 mm 3 mps 740 mmHg 62%
10:00 +25°C° 0 mm 4 mps 740 mmHg 56%
11:00 +24°C° 0.1 mm 3 mps 739 mmHg 58%
12:00 +22°C° 0.1 mm 3 mps 739 mmHg 61%
13:00 +21°C° 0.1 mm 2 mps 738 mmHg 64%
14:00 +21°C° 0.5 mm 2 mps 737 mmHg 67%
15:00 +20°C° 0.5 mm 2 mps 737 mmHg 71%
16:00 +20°C° 0.5 mm 2 mps 736 mmHg 74%
17:00 +19°C° 0.9 mm 2 mps 736 mmHg 77%
18:00 +19°C° 0.9 mm 2 mps 736 mmHg 81%
19:00 +18°C° 0.9 mm 2 mps 735 mmHg 84%
20:00 +18°C° 1.2 mm 2 mps 735 mmHg 86%
21:00 +18°C° 1.2 mm 2 mps 735 mmHg 87%
22:00 +18°C° 1.2 mm 3 mps 735 mmHg 89%
23:00 +18°C° 1.2 mm 3 mps 734 mmHg 90%

26 September, Saturday

Time Temperature Precipitation Wind Pressure Humidity
00:00 +18°C° 1.2 mm 3 mps 733 mmHg 92%
01:00 +18°C° 1.2 mm 4 mps 733 mmHg 94%
02:00 +18°C° 0.5 mm 4 mps 732 mmHg 93%
03:00 +18°C° 0.5 mm 4 mps 732 mmHg 93%
04:00 +17°C° 0.5 mm 5 mps 731 mmHg 93%
05:00 +17°C° 1.9 mm 5 mps 732 mmHg 92%
06:00 +18°C° 1.9 mm 4 mps 732 mmHg 92%
07:00 +18°C° 1.9 mm 4 mps 732 mmHg 92%
08:00 +17°C° 0.5 mm 4 mps 733 mmHg 88%
09:00 +15°C° 0.5 mm 5 mps 733 mmHg 85%
10:00 +14°C° 0.5 mm 5 mps 734 mmHg 82%
11:00 +14°C° 0 mm 5 mps 734 mmHg 79%
12:00 +15°C° 0 mm 4 mps 734 mmHg 76%
13:00 +15°C° 0 mm 4 mps 734 mmHg 72%
14:00 +14°C° 0 mm 5 mps 734 mmHg 73%
15:00 +14°C° 0 mm 5 mps 734 mmHg 73%
16:00 +13°C° 0 mm 6 mps 733 mmHg 73%
17:00 +11°C° 1.4 mm 6 mps 733 mmHg 79%
18:00 +10°C° 1.4 mm 7 mps 733 mmHg 84%
19:00 +9°C° 1.4 mm 7 mps 733 mmHg 89%
20:00 +9°C° 3.5 mm 7 mps 732 mmHg 90%
21:00 +7°C° 3.5 mm 8 mps 732 mmHg 90%
22:00 +7°C° 3.5 mm 9 mps 731 mmHg 90%
23:00 +7°C° 3.1 mm 9 mps 731 mmHg 90%

27 September, Sunday

Time Temperature Precipitation Wind Pressure Humidity
00:00 +7°C° 3.1 mm 9 mps 731 mmHg 89%
01:00 +7°C° 3.1 mm 10 mps 731 mmHg 89%
02:00 +7°C° 2.9 mm 9 mps 731 mmHg 89%
03:00 +7°C° 2.9 mm 9 mps 732 mmHg 89%
04:00 +7°C° 2.9 mm 9 mps 732 mmHg 89%
05:00 +7°C° 2.6 mm 9 mps 732 mmHg 89%
06:00 +7°C° 2.6 mm 9 mps 733 mmHg 89%
07:00 +8°C° 2.6 mm 9 mps 733 mmHg 89%
08:00 +8°C° 2.4 mm 9 mps 733 mmHg 89%
09:00 +7°C° 2.4 mm 10 mps 734 mmHg 88%
10:00 +7°C° 2.4 mm 10 mps 734 mmHg 87%
11:00 +7°C° 1.3 mm 10 mps 735 mmHg 88%
12:00 +7°C° 1.3 mm 10 mps 736 mmHg 88%
13:00 +7°C° 1.3 mm 9 mps 736 mmHg 88%
14:00 +7°C° 1.4 mm 8 mps 737 mmHg 88%
15:00 +8°C° 1.4 mm 7 mps 737 mmHg 88%
16:00 +8°C° 1.4 mm 6 mps 738 mmHg 89%
17:00 +8°C° 0.9 mm 6 mps 738 mmHg 88%
18:00 +8°C° 0.9 mm 6 mps 739 mmHg 88%
19:00 +8°C° 0.9 mm 5 mps 739 mmHg 88%
20:00 +8°C° 0.3 mm 5 mps 739 mmHg 87%
21:00 +8°C° 0.3 mm 6 mps 740 mmHg 86%
22:00 +8°C° 0.3 mm 6 mps 740 mmHg 85%
23:00 +8°C° 0.6 mm 6 mps 740 mmHg 86%
Show more